Location: Chena
(64.8152°N, 147.9227°W)
Time: 00:18:22
(UTC+00:00)

Vanguard 2 - Pass Details

Date: 06 March 2021
Orbit: 552 x 2938 km, 32.9° (Epoch: 10 April)

Event Time Altitude Azimuth Distance (km) Brightness Sun altitude
Exits shadow 15:01:03 - 225° (SW) 5,784 11.5 -11.4°
Reaches altitude 10° 15:05:31 10° 211° (SSW) 5,326 11.4 -11.0°
Maximum altitude 15:14:02 17° 180° (S) 5,097 11.6 -10.1°
Drops below altitude 10° 15:23:09 10° 148° (SSE) 5,766 12.3 -9.1°
Sets 15:30:02 0° 132° (SE) 6,683 13.0 -8.4°
